Location: Limerick
(52.6800°N, 8.6400°W)
Time: 21:52:11
(UTC+01:00)

Amateur Radio Satellites - All Passes

Search period start: 25 June 2017 21:22
Search period end: 26 June 2017 21:22
Location: Limerick, 52.6800°N, 8.6400°W

Satellite Date Start Highest point End Downlink Frequencies (MHz)
Time Altitude Azimuth
EO-88 25 Jun 21:27:55 21:30:49 22° 63° (ENE) 21:33:43 145.990 - 145.960
AO-85 25 Jun 21:28:33 21:31:53 25° 120° (ESE) 21:35:10 145.980
BEESAT 3 25 Jun 21:33:20 21:36:06 18° 115° (ESE) 21:38:55 437.485
CUTE 1.7 + AOD 2 25 Jun 21:37:29 21:39:09 12° 275° (W) 21:40:47 437.475
HO-68 25 Jun 21:37:52 21:43:23 23° 272° (W) 21:48:56 435.675
AO-73 25 Jun 21:37:57 21:42:25 54° 260° (W) 21:46:57 145.935
CUBEBUG 2 25 Jun 21:45:29 21:48:54 20° 272° (W) 21:52:22 437.445
PCSat 25 Jun 21:48:59 21:54:26 74° 235° (SW) 21:59:51 145.827
RS-15 25 Jun 21:54:12 22:05:47 53° 115° (ESE) 22:17:30 29.354- 29.394
DELFI C3 25 Jun 22:00:41 22:04:33 67° 74° (ENE) 22:08:29 145.870
Oscar 11 25 Jun 22:05:53 22:09:54 36° 264° (W) 22:13:57 .
AAUSAT CUBESAT 2 25 Jun 22:10:36 22:13:01 15° 272° (W) 22:15:25 437.432
ZACube-1 25 Jun 22:13:55 22:17:43 25° 268° (W) 22:21:34 437.345
TIGRISAT 25 Jun 22:18:13 22:20:15 13° 84° (E) 22:22:16 435.000
UWE-3 25 Jun 22:20:16 22:22:59 15° 274° (W) 22:25:46 435.000/436.395/437.385
O/OREOS (USA 219) 25 Jun 22:28:46 22:32:59 38° 109° (ESE) 22:37:11 437.305
BEESAT 2 25 Jun 22:31:27 22:34:44 25° 118° (ESE) 22:38:03 435.950
STRAND 1 25 Jun 22:33:22 22:37:51 31° 300° (WNW) 22:42:20 437.568
YUBILEINY 25 Jun 22:37:28 22:45:56 55° 90° (E) 22:54:29 435.215
SO-50 25 Jun 22:37:49 22:42:16 53° 39° (NE) 22:46:43 436.795
ESTCUBE 1 25 Jun 22:48:36 22:52:06 23° 59° (ENE) 22:55:37 437.505/2401.250
FO-29 25 Jun 22:51:24 22:58:49 45° 95° (E) 23:06:16 435.910
UNISAT 6 25 Jun 22:58:51 23:02:59 30° 94° (E) 23:07:02 437.425
EO-88 25 Jun 23:00:50 23:04:19 39° 262° (W) 23:07:49 145.990 - 145.960
NO-84 25 Jun 23:07:26 23:10:57 29° 139° (SE) 23:14:40 435.350 FM
AO-85 25 Jun 23:08:09 23:12:02 52° 319° (NW) 23:15:54 145.980
BEESAT 3 25 Jun 23:09:14 23:13:14 75° 314° (NW) 23:17:18 437.485
SPROUT 25 Jun 23:13:24 23:15:16 13° 53° (NE) 23:17:08 437.525
LO-87 25 Jun 23:23:20 23:26:50 58° 72° (ENE) 23:30:23 145.935 - 145.965
M-CUBED/EXP-1 PRIME 25 Jun 23:27:57 23:31:32 56° 108° (ESE) 23:35:22 437.505
PCSat 25 Jun 23:33:56 23:36:57 15° 255° (WSW) 23:39:56 145.827
DELFI C3 25 Jun 23:37:33 23:39:48 15° 272° (W) 23:42:02 145.870
PRISM 25 Jun 23:45:26 23:49:32 73° 103° (ESE) 23:53:39 437.425
TIGRISAT 25 Jun 23:53:00 23:57:44 81° 104° (ESE) 00:02:21 435.000
QB50P2 26 Jun 00:00:51 00:01:09 10° 84° (E) 00:01:28 145.880/145.840
RS-15 26 Jun 00:05:45 00:18:06 71° 323° (NW) 00:30:28 29.354- 29.394
O/OREOS (USA 219) 26 Jun 00:08:14 00:12:26 36° 310° (NW) 00:16:38 437.305
BEESAT 2 26 Jun 00:08:16 00:12:14 57° 319° (NW) 00:16:16 435.950
AIST 2D 26 Jun 00:16:30 00:19:19 22° 93° (E) 00:22:06 435.315
SO-50 26 Jun 00:18:33 00:22:34 32° 240° (WSW) 00:26:36 436.795
EO-79 26 Jun 00:23:21 00:25:59 16° 88° (E) 00:28:37 145.935-145.965
ESTCUBE 1 26 Jun 00:24:08 00:28:35 58° 259° (W) 00:33:03 437.505/2401.250
VELOX 1 26 Jun 00:25:37 00:29:48 46° 67° (ENE) 00:34:02 145.980
YUBILEINY 26 Jun 00:34:39 00:43:02 46° 294° (WNW) 00:51:30 435.215
UNISAT 6 26 Jun 00:35:22 00:39:50 43° 293° (WNW) 00:44:11 437.425
FO-29 26 Jun 00:36:29 00:43:57 56° 296° (WNW) 00:51:34 435.910
DUCHIFAT 1 26 Jun 00:37:06 00:40:00 17° 90° (E) 00:42:52 145.980
50 SAT 26 Jun 00:43:54 00:46:52 29° 66° (ENE) 00:49:51 437.505
NO-84 26 Jun 00:44:03 00:48:12 89° 171° (S) 00:52:36 435.350 FM
NANOSAT C BR1 26 Jun 00:45:18 00:48:43 23° 92° (E) 00:52:06 145.865
DX 1 26 Jun 00:45:33 00:49:17 29° 62° (ENE) 00:53:03 434.975-435.025
SPROUT 26 Jun 00:46:10 00:50:25 73° 73° (ENE) 00:54:44 437.525
BEESAT 3 26 Jun 00:48:16 00:51:27 22° 337° (NNW) 00:54:39 437.485
AO-85 26 Jun 00:50:29 00:53:15 18° 343° (NNW) 00:56:03 145.980
LO-87 26 Jun 00:58:39 01:00:39 14° 271° (W) 01:02:40 145.935 - 145.965
UKube-1 26 Jun 01:02:32 01:06:15 30° 63° (ENE) 01:10:01 .
M-CUBED/EXP-1 PRIME 26 Jun 01:03:10 01:05:45 19° 305° (NW) 01:08:27 437.505
PRISM 26 Jun 01:21:42 01:24:22 17° 303° (WNW) 01:27:02 437.425
POLYITAN 1 26 Jun 01:22:37 01:26:51 54° 100° (E) 01:31:02 437.675
TIGRISAT 26 Jun 01:30:37 01:33:51 19° 304° (NW) 01:37:03 435.000
QB50P2 26 Jun 01:33:26 01:37:45 73° 104° (ESE) 01:42:01 145.880/145.840
BUGSAT 1 26 Jun 01:46:19 01:49:59 27° 94° (E) 01:53:36 437.445
BEESAT 2 26 Jun 01:47:46 01:50:47 19° 341° (NNW) 01:53:48 435.950
AIST 2D 26 Jun 01:49:24 01:52:38 34° 292° (WNW) 01:55:49 435.315
Oscar 19 26 Jun 01:50:53 01:53:51 15° 86° (E) 01:56:49 437.125/150
O/OREOS (USA 219) 26 Jun 01:52:02 01:53:13 11° 333° (NNW) 01:54:23 437.305
EO-79 26 Jun 01:57:58 02:02:16 72° 287° (WNW) 02:06:31 145.935-145.965
VELOX 1 26 Jun 02:02:50 02:06:28 25° 267° (W) 02:10:08 145.980
MOZHAYETS 4 26 Jun 02:03:37 02:05:29 12° 51° (NE) 02:07:21
DUCHIFAT 1 26 Jun 02:11:51 02:16:06 64° 288° (WNW) 02:20:18 145.980
50 SAT 26 Jun 02:16:52 02:19:41 24° 265° (W) 02:22:31 437.505
NANOSAT C BR1 26 Jun 02:20:32 02:24:41 49° 291° (WNW) 02:28:47 145.865
RS-15 26 Jun 02:21:01 02:32:55 48° 354° (N) 02:44:35 29.354- 29.394
DX 1 26 Jun 02:21:17 02:25:22 40° 262° (W) 02:29:29 434.975-435.025
ITUPSAT 1 26 Jun 02:21:40 02:25:32 25° 58° (ENE) 02:29:24 437.325
NO-84 26 Jun 02:21:47 02:26:03 63° 0° (N) 02:30:25 435.350 FM
FO-29 26 Jun 02:22:36 02:27:32 19° 317° (NW) 02:32:34 435.910
SPROUT 26 Jun 02:24:14 02:26:50 16° 272° (W) 02:29:29 437.525
BEESAT 3 26 Jun 02:28:02 02:30:23 15° 0° (N) 02:32:44 437.485
BEESAT 26 Jun 02:31:16 02:35:22 29° 60° (ENE) 02:39:28 436.000
AO-85 26 Jun 02:32:41 02:35:05 15° 8° (N) 02:37:30 145.980
YUBILEINY 26 Jun 02:38:08 02:42:47 15° 322° (NW) 02:47:28 435.215
UKube-1 26 Jun 02:38:10 02:42:12 39° 262° (W) 02:46:16 .
Gurwin Techsat 1B 26 Jun 02:44:17 02:48:50 28° 93° (E) 02:53:22 435.225
POLYITAN 1 26 Jun 02:58:58 03:02:21 23° 300° (WNW) 03:05:42 437.675
QB50P2 26 Jun 03:10:10 03:13:03 18° 303° (WNW) 03:15:56 145.880/145.840
BUGSAT 1 26 Jun 03:21:27 03:25:27 41° 293° (WNW) 03:29:26 437.445
BEESAT 2 26 Jun 03:27:30 03:29:57 15° 5° (N) 03:32:24 435.950
Oscar 19 26 Jun 03:28:47 03:33:58 87° 107° (ESE) 03:39:05 437.125/150
AO-7 26 Jun 03:33:15 03:38:34 18° 84° (E) 03:43:52 .
EO-79 26 Jun 03:35:26 03:37:17 13° 307° (NW) 03:39:06 145.935-145.965
KKS-1 26 Jun 03:35:41 03:37:52 14° 52° (NE) 03:40:04 437.445
MOZHAYETS 4 26 Jun 03:37:11 03:41:46 63° 71° (ENE) 03:46:23
DUCHIFAT 1 26 Jun 03:49:36 03:50:57 11° 308° (NW) 03:52:19 145.980
ITUPSAT 1 26 Jun 03:58:16 04:03:01 61° 258° (WSW) 04:07:50 437.325
NO-84 26 Jun 03:59:30 04:03:54 87° 199° (SSW) 04:08:17 435.350 FM
STARS 26 Jun 04:05:21 04:07:06 12° 51° (NE) 04:08:51 437.465
BEESAT 3 26 Jun 04:06:02 04:09:17 22° 24° (NNE) 04:12:31 437.485
ITAMSAT 1 26 Jun 04:07:09 04:11:11 22° 90° (E) 04:15:12 435.822/435.867
BEESAT 26 Jun 04:08:18 04:12:56 49° 260° (W) 04:17:38 436.000
AO-85 26 Jun 04:13:02 04:16:37 31° 32° (NNE) 04:20:20 145.980
CUBESAT XI-V 26 Jun 04:19:05 04:23:19 37° 65° (ENE) 04:27:33 437.345
Gurwin Techsat 1B 26 Jun 04:23:54 04:29:07 56° 293° (WNW) 04:34:19 435.225
RS-15 26 Jun 04:35:59 04:48:13 59° 27° (NNE) 04:59:56 29.354- 29.394
BEESAT 2 26 Jun 05:05:27 05:08:57 26° 28° (NNE) 05:12:27 435.950
Oscar 19 26 Jun 05:09:04 05:12:41 20° 306° (NW) 05:16:17 437.125/150
KKS-1 26 Jun 05:09:16 05:13:41 74° 72° (ENE) 05:18:09 437.445
O/OREOS (USA 219) 26 Jun 05:15:46 05:16:48 11° 26° (NNE) 05:17:50 437.305
MOZHAYETS 4 26 Jun 05:15:53 05:19:21 20° 270° (W) 05:22:49
AO-7 26 Jun 05:24:36 05:33:00 68° 107° (ESE) 05:41:20 .
NO-84 26 Jun 05:37:22 05:41:11 30° 221° (SW) 05:44:58 435.350 FM
STARS 26 Jun 05:38:16 05:42:38 66° 71° (ENE) 05:47:02 437.465
BEESAT 3 26 Jun 05:43:24 05:47:28 80° 47° (NE) 05:51:28 437.485
ITAMSAT 1 26 Jun 05:45:56 05:51:10 70° 290° (WNW) 05:56:22 435.822/435.867
AO-85 26 Jun 05:53:15 05:57:14 57° 232° (SW) 06:01:25 145.980
CUBESAT XI-V 26 Jun 05:56:29 06:00:44 34° 265° (W) 06:04:58 437.345
Gurwin Techsat 1B 26 Jun 06:05:35 06:08:02 13° 313° (NW) 06:10:28 435.225
XW-2D 26 Jun 06:33:26 06:34:45 11° 86° (E) 06:36:04 145.860 - 145.880
STRAND 1 26 Jun 06:37:49 06:41:58 25° 57° (ENE) 06:46:09 437.568
LilacSat-2 26 Jun 06:41:25 06:43:34 14° 88° (E) 06:45:42 437.200
XW-2B 26 Jun 06:41:54 06:43:52 14° 88° (E) 06:45:49 145.730 - 145.750
BEESAT 2 26 Jun 06:43:03 06:47:08 77° 229° (SW) 06:51:11 435.950
YUBILEINY 26 Jun 06:44:08 06:47:55 13° 33° (NNE) 06:51:42 435.215
KKS-1 26 Jun 06:47:59 06:50:47 16° 271° (W) 06:53:36 437.445
RS-15 26 Jun 06:49:16 07:01:26 72° 236° (SW) 07:13:01 29.354- 29.394
CUTE-I 26 Jun 06:52:03 06:55:59 20° 89° (E) 06:59:54 437.470
O/OREOS (USA 219) 26 Jun 06:53:27 06:57:36 35° 50° (NE) 07:01:43 437.305
DOVE 4 26 Jun 06:54:48 06:59:25 44° 98° (E) 07:04:16 437.250
XW-2C 26 Jun 06:56:46 06:59:34 19° 91° (E) 07:02:20 145.795 - 145.815
KAITUO 1B 26 Jun 07:10:03 07:12:54 21° 92° (E) 07:15:44 145.475/437.950
HO-68 26 Jun 07:11:06 07:13:57 12° 80° (E) 07:16:46 435.675
STARS 26 Jun 07:16:24 07:19:25 18° 270° (W) 07:22:29 437.465
AO-7 26 Jun 07:17:47 07:25:24 41° 309° (NW) 07:33:01 .
BEESAT 3 26 Jun 07:21:55 07:24:33 17° 246° (WSW) 07:27:09 437.485
ITAMSAT 1 26 Jun 07:26:43 07:29:47 16° 311° (NW) 07:32:50 435.822/435.867
FO-29 26 Jun 07:30:21 07:32:57 12° 33° (NNE) 07:35:39 435.910
CUTE 1.7 + AOD 2 26 Jun 07:39:17 07:40:37 11° 85° (E) 07:41:57 437.475
NUDT-PHONESAT 26 Jun 07:44:47 07:48:23 45° 99° (E) 07:51:56 437.300
CUBEBUG 2 26 Jun 07:54:49 07:55:41 10° 82° (E) 07:56:33 437.445
XW-2F 26 Jun 08:01:26 08:05:13 85° 105° (ESE) 08:08:58 145.980 - 146.000
XW-2D 26 Jun 08:05:42 08:09:30 81° 284° (WNW) 08:13:16 145.860 - 145.880
LilacSat-2 26 Jun 08:14:29 08:18:16 64° 287° (WNW) 08:22:01 437.200
XW-2B 26 Jun 08:14:44 08:18:31 68° 287° (WNW) 08:22:15 145.730 - 145.750
STRAND 1 26 Jun 08:15:39 08:20:46 65° 258° (WSW) 08:25:56 437.568
BEESAT 2 26 Jun 08:22:29 08:24:12 12° 249° (WSW) 08:25:55 435.950
UWE-3 26 Jun 08:26:37 08:28:45 13° 84° (E) 08:30:50 435.000/436.395/437.385
XW-2A 26 Jun 08:28:59 08:31:41 21° 93° (E) 08:34:21 145.665 - 145.685
XW-2C 26 Jun 08:30:22 08:34:01 46° 290° (WNW) 08:37:37 145.795 - 145.815
UNISAT 6 26 Jun 08:30:41 08:31:37 11° 48° (NE) 08:32:33 437.425
CUTE-I 26 Jun 08:31:15 08:36:39 78° 289° (WNW) 08:42:02 437.470
DOVE 4 26 Jun 08:32:45 08:37:01 33° 296° (WNW) 08:41:29 437.250
O/OREOS (USA 219) 26 Jun 08:32:54 08:37:03 38° 251° (WSW) 08:41:11 437.305
YUBILEINY 26 Jun 08:39:50 08:48:03 40° 63° (ENE) 08:56:10 435.215
KAITUO 1B 26 Jun 08:43:35 08:47:06 41° 291° (WNW) 08:50:36 145.475/437.950
M-CUBED/EXP-1 PRIME 26 Jun 08:46:18 08:48:53 22° 57° (ENE) 08:51:29 437.505
SEEDS 26 Jun 08:54:46 08:58:41 38° 97° (E) 09:02:33 437.485
HO-68 26 Jun 08:56:15 09:03:21 57° 102° (ESE) 09:10:22 435.675
RS-15 26 Jun 09:03:01 09:11:40 24° 262° (W) 09:20:05 29.354- 29.394
PRISM 26 Jun 09:06:40 09:09:17 17° 57° (ENE) 09:11:55 437.425
FO-29 26 Jun 09:10:08 09:15:57 37° 57° (ENE) 09:22:25 435.910
AO-7 26 Jun 09:11:15 09:16:03 17° 334° (NNW) 09:20:51 .
CUTE 1.7 + AOD 2 26 Jun 09:12:55 09:17:10 84° 106° (ESE) 09:21:22 437.475
NUDT-PHONESAT 26 Jun 09:19:15 09:22:02 20° 298° (WNW) 09:24:47 437.300
AO-73 26 Jun 09:20:29 09:23:53 21° 90° (E) 09:27:14 145.935
TIGRISAT 26 Jun 09:21:37 09:25:17 23° 59° (ENE) 09:28:59 435.000
Tancredo 1 26 Jun 09:28:16 09:30:34 20° 148° (SSE) 09:32:52 437.200
CUBEBUG 2 26 Jun 09:28:30 09:33:15 67° 102° (ESE) 09:37:52 437.445
XW-2F 26 Jun 09:37:02 09:38:47 13° 304° (WNW) 09:40:31 145.980 - 146.000
XW-2D 26 Jun 09:41:48 09:43:02 11° 305° (NW) 09:44:17 145.860 - 145.880
AAUSAT CUBESAT 2 26 Jun 09:44:18 09:48:23 59° 101° (E) 09:52:26 437.432
Oscar 11 26 Jun 09:46:52 09:50:36 28° 93° (E) 09:54:18 .
ISS 26 Jun 09:52:47 09:55:15 20° 146° (SE) 09:57:42 437.550
ZACube-1 26 Jun 09:55:15 09:59:36 46° 98° (E) 10:03:51 437.345
STRAND 1 26 Jun 09:59:29 10:00:59 11° 277° (W) 10:02:30 437.568
UWE-3 26 Jun 10:01:18 10:05:58 84° 104° (ESE) 10:10:30 435.000/436.395/437.385
XW-2A 26 Jun 10:01:23 10:04:32 34° 292° (WNW) 10:07:39 145.665 - 145.685
UNISAT 6 26 Jun 10:02:48 10:07:17 51° 69° (ENE) 10:11:52 437.425
CUTE-I 26 Jun 10:12:26 10:15:55 18° 309° (NW) 10:19:24 437.470
M-CUBED/EXP-1 PRIME 26 Jun 10:20:15 10:23:16 33° 256° (WSW) 10:26:17 437.505
EO-88 26 Jun 10:24:54 10:26:32 12° 88° (E) 10:28:08 145.990 - 145.960
SEEDS 26 Jun 10:30:41 10:34:16 28° 296° (WNW) 10:37:50 437.485
YUBILEINY 26 Jun 10:36:44 10:45:27 65° 267° (W) 10:54:05 435.215
PRISM 26 Jun 10:40:04 10:44:07 72° 257° (WSW) 10:48:12 437.425
HO-68 26 Jun 10:44:18 10:50:56 42° 303° (WNW) 10:57:31 435.675
POLYITAN 1 26 Jun 10:47:14 10:49:33 14° 54° (NE) 10:51:52 437.675
CUTE 1.7 + AOD 2 26 Jun 10:49:58 10:52:26 15° 304° (WNW) 10:54:54 437.475
FO-29 26 Jun 10:54:29 11:00:40 59° 261° (W) 11:07:46 435.910
AO-73 26 Jun 10:56:05 11:00:30 56° 290° (WNW) 11:04:47 145.935
AIST 2D 26 Jun 10:56:27 10:59:15 22° 64° (ENE) 11:02:04 435.315
TIGRISAT 26 Jun 10:57:01 11:01:36 61° 259° (W) 11:06:17 435.000
QB50P2 26 Jun 10:57:21 11:00:16 18° 57° (ENE) 11:03:12 145.880/145.840
Tancredo 1 26 Jun 11:02:45 11:05:45 58° 167° (SSE) 11:08:46 437.200
AO-7 26 Jun 11:03:08 11:05:31 11° 2° (N) 11:07:53 .
CUBEBUG 2 26 Jun 11:05:48 11:09:25 22° 302° (WNW) 11:12:59 437.445
DELFI C3 26 Jun 11:06:18 11:10:08 47° 99° (E) 11:13:57 145.870
AAUSAT CUBESAT 2 26 Jun 11:20:31 11:23:30 20° 300° (WNW) 11:26:28 437.432
EO-79 26 Jun 11:20:53 11:24:24 26° 62° (ENE) 11:27:57 145.935-145.965
Oscar 11 26 Jun 11:22:49 11:26:52 40° 293° (WNW) 11:30:53 .
ISS 26 Jun 11:28:03 11:31:17 57° 165° (SSE) 11:34:33 437.550
ZACube-1 26 Jun 11:31:53 11:35:42 27° 298° (WNW) 11:39:25 437.345
DUCHIFAT 1 26 Jun 11:34:03 11:37:40 28° 63° (ENE) 11:41:19 145.980
UWE-3 26 Jun 11:38:46 11:41:49 18° 304° (NW) 11:44:50 435.000/436.395/437.385
UNISAT 6 26 Jun 11:40:25 11:44:16 25° 268° (W) 11:48:11 437.425
NANOSAT C BR1 26 Jun 11:42:34 11:46:27 36° 65° (ENE) 11:50:22 145.865
EO-88 26 Jun 11:57:01 12:00:40 70° 287° (WNW) 12:04:18 145.990 - 145.960
ESTCUBE 1 26 Jun 12:11:04 12:14:23 20° 90° (E) 12:17:41 437.505/2401.250
LO-87 26 Jun 12:17:48 12:21:07 32° 96° (E) 12:24:24 145.935 - 145.965
POLYITAN 1 26 Jun 12:20:24 12:24:41 85° 76° (ENE) 12:29:01 437.675
AIST 2D 26 Jun 12:28:58 12:32:18 37° 263° (W) 12:35:38 435.315
QB50P2 26 Jun 12:31:20 12:35:36 72° 257° (WSW) 12:39:54 145.880/145.840
HO-68 26 Jun 12:33:27 12:36:53 14° 327° (NNW) 12:40:19 435.675
Gurwin Techsat 1B 26 Jun 12:33:56 12:37:15 17° 50° (NE) 12:40:34 435.225
AO-73 26 Jun 12:34:44 12:35:46 11° 310° (NW) 12:36:49 145.935
YUBILEINY 26 Jun 12:35:23 12:40:27 17° 291° (WNW) 12:45:30 435.215
PCSat 26 Jun 12:36:52 12:41:30 30° 113° (ESE) 12:46:10 145.827
Tancredo 1 26 Jun 12:38:12 12:41:14 70° 188° (S) 12:44:17 437.200
BUGSAT 1 26 Jun 12:41:13 12:45:07 40° 67° (ENE) 12:49:06 437.445
DELFI C3 26 Jun 12:41:38 12:44:39 22° 298° (WNW) 12:47:41 145.870
FO-29 26 Jun 12:44:43 12:47:32 13° 285° (WNW) 12:50:29 435.910
AO-7 26 Jun 12:49:54 12:55:03 18° 29° (NNE) 13:00:13 .
EO-79 26 Jun 12:55:53 12:59:58 45° 261° (W) 13:04:07 145.935-145.965
ISS 26 Jun 13:04:23 13:07:41 73° 185° (S) 13:10:58 437.550
DUCHIFAT 1 26 Jun 13:09:12 13:13:12 41° 262° (W) 13:17:16 145.980
Oscar 19 26 Jun 13:12:49 13:17:37 41° 64° (ENE) 13:22:25 437.125/150
NANOSAT C BR1 26 Jun 13:18:25 13:22:13 31° 265° (W) 13:26:03 145.865
50 SAT 26 Jun 13:33:49 13:35:35 13° 90° (E) 13:37:19 437.505
VELOX 1 26 Jun 13:45:42 13:49:53 40° 98° (E) 13:54:04 145.980
ESTCUBE 1 26 Jun 13:47:09 13:51:35 61° 290° (WNW) 13:56:00 437.505/2401.250
LO-87 26 Jun 13:51:23 13:54:28 26° 295° (WNW) 13:57:33 145.935 - 145.965
ITAMSAT 1 26 Jun 13:54:41 13:57:13 14° 47° (NE) 13:59:45 435.822/435.867
POLYITAN 1 26 Jun 13:58:55 14:01:05 14° 273° (W) 14:03:15 437.675
SPROUT 26 Jun 14:01:33 14:05:51 62° 101° (ESE) 14:10:07 437.525
DX 1 26 Jun 14:03:28 14:06:57 23° 93° (E) 14:10:25 434.975-435.025
Gurwin Techsat 1B 26 Jun 14:11:06 14:16:24 75° 71° (ENE) 14:21:44 435.225
Tancredo 1 26 Jun 14:13:51 14:16:35 30° 206° (SSW) 14:19:19 437.200
BUGSAT 1 26 Jun 14:17:05 14:20:37 26° 266° (W) 14:24:13 437.445
UKube-1 26 Jun 14:19:11 14:22:37 22° 93° (E) 14:26:02 .
PCSat 26 Jun 14:19:11 14:24:35 64° 314° (NW) 14:30:01 145.827
AO-7 26 Jun 14:38:07 14:45:53 46° 54° (NE) 14:53:42 .
SO-50 26 Jun 14:38:47 14:42:01 19° 115° (ESE) 14:45:14 436.795
ISS 26 Jun 14:40:54 14:43:57 35° 205° (SSW) 14:47:00 437.550
Oscar 19 26 Jun 14:52:15 14:57:00 37° 264° (W) 15:01:47 437.125/150
50 SAT 26 Jun 15:05:21 15:08:43 57° 288° (WNW) 15:12:04 437.505
VELOX 1 26 Jun 15:22:22 15:26:14 30° 297° (WNW) 15:30:07 145.980
ESTCUBE 1 26 Jun 15:26:03 15:27:31 11° 310° (NW) 15:28:59 437.505/2401.250
ITAMSAT 1 26 Jun 15:30:35 15:35:42 59° 68° (ENE) 15:40:51 435.822/435.867
SPROUT 26 Jun 15:38:11 15:41:23 20° 301° (WNW) 15:44:34 437.525
DX 1 26 Jun 15:39:09 15:43:24 51° 292° (WNW) 15:47:39 434.975-435.025
Gurwin Techsat 1B 26 Jun 15:53:00 15:56:56 21° 271° (W) 16:00:53 435.225
ITUPSAT 1 26 Jun 15:53:05 15:56:54 23° 92° (E) 16:00:41 437.325
UKube-1 26 Jun 15:54:43 15:58:55 51° 292° (WNW) 16:03:06 .
BEESAT 26 Jun 16:02:23 16:06:29 28° 94° (E) 16:10:34 436.000
PCSat 26 Jun 16:04:37 16:09:00 24° 337° (NNW) 16:13:24 145.827
SO-50 26 Jun 16:17:24 16:21:58 82° 315° (NW) 16:26:31 436.795
AO-7 26 Jun 16:30:19 16:38:30 60° 256° (WSW) 16:46:48 .
DOVE 4 26 Jun 16:31:36 16:33:35 13° 52° (NE) 16:35:37 437.250
CUTE-I 26 Jun 16:43:06 16:45:34 13° 46° (NE) 16:48:02 437.470
MOZHAYETS 4 26 Jun 17:03:06 17:07:43 65° 102° (ESE) 17:12:16
ITAMSAT 1 26 Jun 17:11:13 17:15:32 26° 268° (W) 17:19:54 435.822/435.867
XW-2F 26 Jun 17:15:53 17:17:43 13° 57° (ENE) 17:19:33 145.980 - 146.000
XW-2D 26 Jun 17:19:58 17:22:14 15° 58° (ENE) 17:24:30 145.860 - 145.880
XW-2B 26 Jun 17:28:36 17:31:12 17° 60° (ENE) 17:33:46 145.730 - 145.750
LilacSat-2 26 Jun 17:28:45 17:31:28 19° 60° (ENE) 17:34:10 437.200
ITUPSAT 1 26 Jun 17:30:21 17:35:07 59° 290° (WNW) 17:39:48 437.325
BEESAT 26 Jun 17:39:52 17:44:29 48° 293° (WNW) 17:49:05 436.000
XW-2C 26 Jun 17:43:30 17:46:36 24° 63° (ENE) 17:49:42 145.795 - 145.815
HO-68 26 Jun 17:45:45 17:51:05 23° 45° (NE) 17:56:26 435.675
CUBESAT XI-V 26 Jun 17:46:21 17:50:40 38° 97° (E) 17:54:58 437.345
PCSat 26 Jun 17:50:37 17:54:18 18° 3° (N) 17:57:59 145.827
KAITUO 1B 26 Jun 17:55:30 17:58:35 24° 64° (ENE) 18:01:41 145.475/437.950
SO-50 26 Jun 17:59:12 18:03:03 26° 337° (NNW) 18:06:53 436.795
DOVE 4 26 Jun 18:06:19 18:10:30 77° 75° (ENE) 18:14:55 437.250
CUTE-I 26 Jun 18:19:21 18:24:33 56° 67° (ENE) 18:29:48 437.470
AO-7 26 Jun 18:28:54 18:33:11 15° 279° (W) 18:37:31 .
NUDT-PHONESAT 26 Jun 18:29:15 18:32:54 50° 70° (ENE) 18:36:34 437.300
KKS-1 26 Jun 18:30:30 18:34:59 64° 103° (ESE) 18:39:27 437.445
CUTE 1.7 + AOD 2 26 Jun 18:36:45 18:39:43 19° 59° (ENE) 18:42:41 437.475
MOZHAYETS 4 26 Jun 18:40:59 18:44:28 22° 302° (WNW) 18:47:56
XW-2F 26 Jun 18:47:28 18:51:17 86° 256° (WSW) 18:55:08 145.980 - 146.000
XW-2D 26 Jun 18:52:07 18:55:57 72° 257° (WSW) 18:59:48 145.860 - 145.880
CUBEBUG 2 26 Jun 18:57:02 19:00:19 19° 57° (ENE) 19:03:40 437.445
STARS 26 Jun 18:57:43 19:02:06 55° 101° (E) 19:06:28 437.465
XW-2B 26 Jun 19:01:12 19:05:00 60° 259° (W) 19:08:49 145.730 - 145.750
LilacSat-2 26 Jun 19:01:36 19:05:24 56° 259° (W) 19:09:13 437.200
XW-2A 26 Jun 19:05:54 19:08:32 20° 63° (ENE) 19:11:09 145.665 - 145.685
AAUSAT CUBESAT 2 26 Jun 19:07:02 19:08:58 13° 55° (NE) 19:10:53 437.432
ITUPSAT 1 26 Jun 19:10:04 19:12:00 12° 311° (NW) 19:13:56 437.325
XW-2C 26 Jun 19:16:58 19:20:37 40° 262° (W) 19:24:16 145.795 - 145.815
BEESAT 26 Jun 19:20:22 19:21:12 10° 314° (NW) 19:22:02 436.000
ZACube-1 26 Jun 19:22:48 19:25:06 14° 53° (NE) 19:27:24 437.345
CUBESAT XI-V 26 Jun 19:23:53 19:28:00 33° 296° (WNW) 19:32:06 437.345
UWE-3 26 Jun 19:28:22 19:31:58 23° 59° (ENE) 19:35:37 435.000/436.395/437.385
KAITUO 1B 26 Jun 19:28:54 19:32:27 37° 263° (W) 19:36:00 145.475/437.950
HO-68 26 Jun 19:30:37 19:37:48 75° 67° (ENE) 19:45:01 435.675
PCSat 26 Jun 19:34:44 19:39:28 29° 29° (NNE) 19:44:10 145.827
SO-50 26 Jun 19:41:44 19:44:54 18° 1° (N) 19:48:04 436.795
DOVE 4 26 Jun 19:46:34 19:48:53 14° 274° (W) 19:51:15 437.250
SEEDS 26 Jun 19:51:40 19:55:46 56° 71° (ENE) 19:59:53 437.485
CUTE-I 26 Jun 20:00:22 20:04:55 28° 267° (W) 20:09:32 437.470
NUDT-PHONESAT 26 Jun 20:04:27 20:07:04 18° 269° (W) 20:09:42 437.300
KKS-1 26 Jun 20:07:47 20:11:09 21° 302° (WNW) 20:14:31 437.445
CUTE 1.7 + AOD 2 26 Jun 20:10:54 20:15:08 67° 258° (WSW) 20:19:23 437.475
STRAND 1 26 Jun 20:20:18 20:24:45 28° 93° (E) 20:29:09 437.568
AO-73 26 Jun 20:20:57 20:25:03 34° 65° (ENE) 20:29:12 145.935
XW-2F 26 Jun 20:25:59 20:26:03 10° 275° (W) 20:26:07 145.980 - 146.000
CUBEBUG 2 26 Jun 20:31:44 20:36:23 78° 256° (WSW) 20:41:10 437.445
STARS 26 Jun 20:34:37 20:38:09 24° 301° (WNW) 20:41:41 437.465
XW-2A 26 Jun 20:37:50 20:41:05 38° 262° (W) 20:44:21 145.665 - 145.685
AAUSAT CUBESAT 2 26 Jun 20:39:39 20:43:47 83° 73° (ENE) 20:47:55 437.432
Oscar 11 26 Jun 20:46:54 20:51:02 44° 68° (ENE) 20:55:11 .
ZACube-1 26 Jun 20:56:02 21:00:36 73° 73° (ENE) 21:05:12 437.345
UWE-3 26 Jun 21:03:26 21:08:02 63° 259° (WSW) 21:12:43 435.000/436.395/437.385
EO-88 26 Jun 21:08:13 21:10:22 15° 59° (ENE) 21:12:33 145.990 - 145.960
O/OREOS (USA 219) 26 Jun 21:14:53 21:16:20 11° 97° (E) 21:17:46 437.305
BEESAT 3 26 Jun 21:16:32 21:19:18 18° 115° (ESE) 21:22:06 437.485
